Date String (YYYY-MM-DD hh:mm:ss) UTC,Instrument flags,Ambient pressure (hPa),Sample flow (lpm),Bypass flow (lpm),Sample temperature (°C),Ambient temperature (°C),ASC tube jacket temperature (°C),LED temperature (°C),Box temperature (°C),Sample RH (%),Span deviation,Mass concentration (μg/m³),Mass concentration (μg/m³),Mass concentration (μg/m³)
DateTimeUTC,F1_M11,P_M11,Q1_M11,Q2_M11,T1_M11,T2_M11,T3_M11,T4_M11,T5_M11,U1_M11,ZSPAN_M11,X0_M11,X2_M11,X1_M11
2023-04-28 05:00:00,,0831.5,5.00,0.00,25.4,23.9,00.0,33.8,27.0,20.3,0000.0,0001.88,0000.67,0000.30
2023-04-28 05:01:00,,0831.4,5.00,0.00,25.4,23.9,00.0,33.8,26.9,20.2,0000.0,0001.93,0000.66,0000.29
2023-04-28 05:02:00,,0831.4,5.00,0.00,25.4,23.9,00.0,33.8,27.0,20.0,0000.0,0001.93,0000.67,0000.28
2023-04-28 05:03:00,,0831.4,4.99,0.00,25.4,23.9,00.0,33.8,27.0,20.0,0000.0,0002.01,0000.66,0000.28
2023-04-28 05:04:00,,0831.4,5.01,0.00,25.4,24.0,00.0,33.8,27.0,19.9,0000.0,0003.06,0000.67,0000.27
2023-04-28 05:05:00,,0831.4,5.00,0.00,25.4,24.0,00.0,33.8,27.0,19.9,0000.0,0003.25,0000.71,0000.28
2023-04-28 05:06:00,,0831.4,4.99,0.00,25.4,24.0,00.0,33.8,27.0,20.0,0000.0,0004.26,0000.77,0000.28
2023-04-28 05:07:00,,0831.4,5.01,0.00,25.5,24.0,00.0,33.8,27.0,20.0,0000.0,0004.44,0000.80,0000.27
2023-04-28 05:08:00,,0831.5,5.01,0.00,25.5,24.0,00.0,33.8,27.1,20.0,0000.0,0005.40,0000.79,0000.27
2023-04-28 05:09:00,,0831.5,4.99,0.00,25.5,24.0,00.0,33.8,27.1,20.0,0000.0,0005.77,0000.84,0000.27
2023-04-28 05:10:00,,0831.5,4.99,0.00,25.5,24.1,00.0,33.8,27.0,20.1,0000.0,0005.75,0000.81,0000.27
2023-04-28 05:11:00,,0831.5,5.01,0.00,25.5,24.1,00.0,33.8,27.0,20.0,0000.0,0005.52,0000.78,0000.27
2023-04-28 05:12:00,,0831.4,5.01,0.00,25.5,24.1,00.0,33.8,27.0,19.9,0000.0,0005.76,0000.77,0000.27
2023-04-28 05:13:00,,0831.5,4.99,0.00,25.5,24.1,00.0,33.8,27.0,19.9,0000.0,0005.88,0000.75,0000.28
2023-04-28 05:14:00,,0831.5,4.99,0.00,25.5,24.1,00.0,33.8,27.0,19.9,0000.0,0005.63,0000.73,0000.28
2023-04-28 05:15:00,,0831.5,5.01,0.00,25.6,24.1,00.0,33.8,27.0,19.9,0000.0,0004.54,0000.75,0000.29
2023-04-28 05:16:00,,0831.5,5.00,0.00,25.6,24.1,00.0,33.8,27.1,19.9,0000.0,0004.42,0000.71,0000.28
2023-04-28 05:17:00,,0831.5,4.99,0.00,25.6,24.2,00.0,33.8,27.1,19.9,0000.0,0003.57,0000.69,0000.28
2023-04-28 05:18:00,,0831.5,5.01,0.00,25.6,24.2,00.0,33.8,27.1,19.9,0000.0,0003.30,0000.62,0000.28
2023-04-28 05:19:00,,0831.5,5.01,0.00,25.6,24.2,00.0,33.9,27.1,19.7,0000.0,0002.61,0000.60,0000.28
2023-04-28 05:20:00,,0831.5,4.99,0.00,25.6,24.2,00.0,33.9,27.1,19.7,0000.0,0001.98,0000.57,0000.28
2023-04-28 05:21:00,,0831.5,5.00,0.00,25.6,24.2,00.0,33.9,27.1,19.6,0000.0,0002.06,0000.57,0000.28
2023-04-28 05:22:00,,0831.5,5.00,0.00,25.6,24.2,00.0,33.9,27.1,19.7,0000.0,0002.13,0000.58,0000.28
2023-04-28 05:23:00,,0831.5,4.99,0.00,25.6,24.2,00.0,33.9,27.2,19.7,0000.0,0001.96,0000.59,0000.28
2023-04-28 05:24:00,,0831.4,4.99,0.00,25.6,24.1,00.0,33.9,27.1,19.6,0000.0,0002.09,0000.60,0000.28
2023-04-28 05:25:00,,0831.5,5.01,0.00,25.6,24.1,00.0,33.9,27.1,19.8,0000.0,0002.52,0000.61,0000.28
2023-04-28 05:26:00,,0831.5,5.00,0.00,25.6,24.1,00.0,33.9,27.1,19.9,0000.0,0002.51,0000.61,0000.27
2023-04-28 05:27:00,,0831.5,5.00,0.00,25.6,24.2,00.0,33.9,27.1,19.7,0000.0,0002.50,0000.61,0000.28
2023-04-28 05:28:00,,0831.6,5.00,0.00,25.6,24.2,00.0,33.9,27.1,19.7,0000.0,0002.71,0000.63,0000.27
2023-04-28 05:29:00,,0831.6,4.99,0.00,25.6,24.2,00.0,33.9,27.1,19.7,0000.0,0004.95,0000.63,0000.27
2023-04-28 05:30:00,,0831.6,5.01,0.00,25.6,24.2,00.0,33.9,27.1,19.6,0000.0,0005.54,0000.65,0000.27
2023-04-28 05:31:00,,0831.7,5.01,0.00,25.7,24.2,00.0,33.9,27.1,19.6,0000.0,0005.65,0000.68,0000.27
2023-04-28 05:32:00,,0831.7,4.98,0.00,25.7,24.2,00.0,33.9,27.1,19.7,0000.0,0005.73,0000.68,0000.27
2023-04-28 05:33:00,,0831.7,5.00,0.00,25.7,24.2,00.0,33.9,27.2,19.6,0000.0,0006.03,0000.68,0000.27
2023-04-28 05:34:00,,0831.7,5.02,0.00,25.7,24.2,00.0,34.0,27.2,19.5,0000.0,0006.05,0000.69,0000.27
2023-04-28 05:35:00,,0831.7,5.00,0.00,25.7,24.2,00.0,34.0,27.2,19.8,0000.0,0005.62,0000.69,0000.26
2023-04-28 05:36:00,,0831.6,4.99,0.00,25.7,24.2,00.0,34.0,27.2,19.9,0000.0,0006.41,0000.71,0000.25
2023-04-28 05:37:00,,0831.7,5.02,0.00,25.7,24.2,00.0,34.0,27.2,19.9,0000.0,0006.50,0000.71,0000.25
2023-04-28 05:38:00,,0831.7,4.99,0.00,25.7,24.2,00.0,34.0,27.3,19.8,0000.0,0006.64,0000.75,0000.26
2023-04-28 05:39:00,,0831.7,4.98,0.00,25.7,24.2,00.0,34.0,27.2,19.9,0000.0,0006.33,0000.74,0000.27
2023-04-28 05:40:00,,0832.1,5.01,0.00,25.7,24.2,00.0,34.0,27.2,20.0,0000.0,0004.06,0000.74,0000.27
2023-04-28 05:41:00,,0832.2,5.01,0.00,25.7,24.2,00.0,34.0,27.3,19.9,0000.0,0003.92,0000.78,0000.27
2023-04-28 05:42:00,,0831.9,5.00,0.00,25.7,24.2,00.0,34.0,27.2,20.1,0000.0,0003.79,0000.77,0000.28
2023-04-28 05:43:00,,0831.9,5.00,0.00,25.7,24.2,00.0,34.0,27.2,20.1,0000.0,0003.65,0000.80,0000.29
2023-04-28 05:44:00,,0831.8,4.98,0.00,25.7,24.2,00.0,34.0,27.2,20.2,0000.0,0003.51,0000.81,0000.29
2023-04-28 05:45:00,,0831.9,5.00,0.00,25.7,24.2,00.0,34.0,27.2,20.2,0000.0,0004.81,0000.83,0000.30
2023-04-28 05:46:00,,0831.9,5.01,0.00,25.7,24.2,00.0,34.0,27.2,20.3,0000.0,0004.69,0000.82,0000.32
2023-04-28 05:47:00,,0831.9,4.99,0.00,25.7,24.2,00.0,34.0,27.2,19.3,0000.0,0004.53,0000.86,0000.33
2023-04-28 05:48:00,,0831.9,4.99,0.00,25.6,24.1,00.0,34.0,27.1,19.1,0000.0,0004.53,0000.88,0000.34
2023-04-28 05:49:00,,0832.0,5.00,0.00,25.6,24.0,00.0,34.0,27.1,19.7,0000.0,0004.47,0000.88,0000.34
2023-04-28 05:50:00,,0832.0,5.00,0.00,25.6,24.0,00.0,34.0,27.1,19.9,0000.0,0004.77,0000.85,0000.34
2023-04-28 05:51:00,,0832.0,5.01,0.00,25.6,24.0,00.0,34.0,27.1,19.5,0000.0,0004.97,0000.87,0000.35
2023-04-28 05:52:00,,0832.0,5.00,0.00,25.6,24.0,00.0,34.0,27.1,19.2,0000.0,0004.74,0000.85,0000.36
2023-04-28 05:53:00,,0831.9,5.00,0.00,25.6,24.1,00.0,34.0,27.1,19.1,0000.0,0004.68,0000.82,0000.36
2023-04-28 05:54:00,,0832.0,4.99,0.00,25.6,24.1,00.0,34.0,27.1,18.6,0000.0,0004.54,0000.76,0000.36
2023-04-28 05:55:00,,0831.9,5.01,0.00,25.6,24.0,00.0,34.0,27.1,18.3,0000.0,0004.21,0000.73,0000.36
2023-04-28 05:56:00,,0831.8,5.00,0.00,25.5,24.0,00.0,34.0,27.0,18.6,0000.0,0002.93,0000.70,0000.35
2023-04-28 05:57:00,,0831.9,5.00,0.00,25.5,24.0,00.0,34.0,27.0,18.3,0000.0,0002.76,0000.66,0000.34
2023-04-28 05:58:00,,0832.1,5.01,0.00,25.5,24.0,00.0,34.0,27.1,18.4,0000.0,0001.97,0000.61,0000.33
2023-04-28 05:59:00,,0832.2,5.00,0.00,25.5,24.0,00.0,34.0,27.1,18.3,0000.0,0001.65,0000.56,0000.33
